Wetbulb
58.53 59.44 60.34 60.43 61.09 62.43 63.75 65.62 68.68 69.77 70.59 71.32 70.29 68.86 68.56 68.73 68.25 68.07 68.48 68.25 67.65 67.60 67.38 67.77 67.24 64.67 62.90 62.11 60.37 59.81 59.73 59.78
58.73 59.67 59.61 60.04 61.55 61.59 61.87 62.45 65.90 68.52 67.62 67.98 68.73 65.21 65.35 66.01 68.44 68.56 68.07 67.36 66.68 65.84 65.65 65.69 64.92 62.73 61.13 60.71 59.33 58.99 58.35 59.50
57.58 57.30 58.49 60.83 61.72 62.53 63.27 63.44 63.75 65.35 67.05 67.68 67.88 64.51 64.68 65.44 66.84 68.23 67.91 67.04 66.13 65.69 65.85 63.72 61.42 60.68 59.90 59.18 57.96 56.97 57.41 58.79
54.77 55.77 59.15 60.90 61.57 62.43 62.93 63.63 64.19 65.43 66.82 67.61 65.52 65.11 64.21 63.72 64.16 65.87 66.68 66.70 66.00 66.12 65.78 63.81 60.96 60.04 58.45 58.28 57.80 57.11 55.53 57.63
54.63 57.26 58.79 60.22 61.44 62.54 64.05 64.08 64.25 65.12 66.96 66.40 63.81 62.50 61.40 62.81 64.00 65.04 65.51 66.48 65.67 64.96 64.59 62.98 60.96 59.59 58.50 58.51 59.49 57.64 56.70 55.27
56.31 57.45 58.33 59.05 60.33 62.01 63.65 64.44 64.42 65.08 65.77 66.43 64.36 62.37 64.33 65.43 65.19 64.83 63.88 65.28 64.29 65.05 64.15 62.04 61.10 59.62 58.97 58.03 57.69 56.96 56.41 55.33
56.20 57.33 58.03 58.52 60.22 61.49 62.67 63.41 64.00 64.65 65.46 65.49 64.36 62.88 65.06 64.82 65.11 64.35 62.64 63.83 64.46 63.77 63.27 62.37 62.16 60.79 58.90 57.87 58.03 57.20 56.65 56.10
55.09 55.30 56.29 57.51 58.68 60.14 60.97 61.50 62.87 64.16 64.27 63.89 63.63 63.32 64.91 65.64 65.38 64.29 62.86 62.27 62.65 62.58 61.28 61.50 60.79 60.49 59.67 58.31 57.52 57.06 56.72 56.43
54.78 55.65 56.98 57.63 58.50 59.29 59.81 60.37 61.30 63.26 63.23 61.20 63.04 63.15 63.56 64.65 64.68 63.84 62.75 62.17 62.57 61.45 60.67 60.14 59.50 59.44 59.64 58.32 57.46 57.18 56.92 56.55
55.13 56.30 56.78 57.19 57.16 57.35 58.64 58.68 60.03 62.17 62.75 61.12 61.89 62.52 62.70 63.33 65.29 65.10 63.31 62.50 62.21 62.14 61.38 60.72 60.13 58.95 59.28 58.12 57.20 56.60 56.78 56.71
54.76 55.46 55.59 55.56 55.71 55.88 57.50 57.96 59.77 61.48 61.67 60.51 60.82 60.53 63.26 63.66 64.85 63.13 62.66 61.55 61.92 61.01 59.77 59.13 58.23 57.46 57.39 57.21 57.04 57.27 56.44 56.82
54.29 54.09 54.41 54.38 54.34 53.86 54.22 54.74 59.51 61.35 60.25 59.78 59.81 59.33 61.70 62.93 63.35 62.62 61.94 61.50 61.30 60.94 61.22 59.53 57.93 56.96 56.37 55.67 55.81 56.07 55.99 56.05
52.95 53.76 53.89 53.37 52.27 51.17 50.35 49.20 56.06 60.03 59.11 58.59 58.05 58.61 60.51 61.87 61.92 60.75 61.19 60.90 61.32 60.92 60.79 59.05 57.70 56.42 55.95 54.84 54.12 54.58 54.68 54.88
51.47 51.42 50.84 50.84 50.59 49.27 46.52 45.95 46.37 58.12 57.83 57.28 57.36 57.40 59.54 60.29 60.29 59.71 59.50 60.58 59.60 60.11 58.90 58.87 57.15 56.27 55.33 55.16 54.70 54.13 54.40 54.96
48.09 48.27 48.07 49.13 48.68 46.83 43.41 43.50 44.22 57.34 57.47 56.88 56.78 57.63 58.87 58.96 58.91 59.23 58.42 59.82 58.94 58.59 58.26 58.29 57.04 56.25 55.10 54.46 54.07 53.75 53.84 54.26
44.78 44.50 44.21 45.71 45.45 43.79 41.31 42.51 43.95 56.06 56.27 56.07 55.73 56.73 57.73 58.79 57.98 58.38 57.87 58.74 58.99 58.16 57.45 57.49 57.91 56.92 56.09 55.13 54.35 53.72 53.16 53.27
41.72 41.85 41.28 41.71 41.33 39.37 39.20 40.05 41.60 46.51 54.98 54.32 55.12 56.01 56.88 58.19 57.66 57.29 57.16 58.02 58.91 58.36 57.03 56.95 56.70 56.58 45.86 45.78 51.76 53.66 52.98 52.54
38.26 37.75 38.16 38.90 38.62 37.71 37.47 38.53 39.54 47.04 54.44 54.30 54.66 55.02 55.72 56.73 56.54 56.73 56.96 56.75 57.71 57.85 58.34 58.00 57.28 58.04 44.62 44.19 44.21 55.36 53.51 52.98
35.50 35.86 35.47 36.90 36.90 37.06 37.44 37.07 39.02 49.45 50.80 52.34 54.62 55.02 55.02 55.33 55.84 55.95 56.38 57.07 56.45 56.70 56.78 57.01 57.68 57.14 42.91 43.09 42.28 55.39 54.49 54.51
MSLP
998.94 999.30 999.53 1000.01 1000.58 1001.02 1001.52 1002.08 1002.96 1003.98 1004.70 1005.33 1005.64 1006.47 1006.94 1007.18 1007.54 1008.31 1008.79 1009.47 1009.95 1010.41 1010.68 1010.99 1011.50 1012.48 1013.29 1013.89 1014.47 1015.12 1014.94 1015.68
998.56 998.92 999.70 1000.40 1001.06 1001.37 1001.61 1001.93 1002.38 1003.20 1004.00 1004.29 1004.90 1006.05 1006.93 1007.10 1006.69 1007.16 1007.68 1008.55 1009.42 1010.20 1010.54 1010.81 1011.58 1012.39 1013.13 1013.76 1014.52 1014.62 1015.33 1015.55
998.16 998.78 1000.02 1000.74 1001.08 1001.25 1001.35 1001.56 1002.05 1002.43 1003.05 1003.48 1004.68 1006.07 1006.75 1007.13 1006.89 1006.72 1007.15 1008.01 1008.70 1009.68 1010.21 1010.87 1011.46 1012.24 1012.94 1013.57 1014.14 1014.36 1015.18 1014.96
997.87 999.06 1000.25 1000.81 1001.07 1001.00 1001.19 1001.20 1001.36 1001.76 1002.61 1003.42 1005.06 1005.76 1006.41 1006.77 1006.77 1006.62 1007.05 1007.64 1008.16 1008.89 1009.65 1010.55 1011.22 1011.84 1012.46 1013.12 1013.53 1013.87 1014.74 1015.11
998.14 999.31 1000.06 1000.60 1000.85 1001.07 1001.28 1001.12 1001.00 1001.24 1002.08 1002.90 1004.35 1004.63 1005.15 1005.53 1006.00 1006.17 1006.53 1007.14 1007.65 1008.38 1009.36 1010.14 1010.84 1011.38 1012.05 1012.62 1013.12 1013.42 1013.96 1014.54
998.78 999.48 999.98 1000.27 1000.44 1000.82 1001.38 1001.39 1001.08 1000.98 1001.39 1002.36 1003.68 1004.37 1004.55 1004.59 1005.16 1005.52 1006.25 1006.81 1007.39 1008.01 1008.97 1009.63 1010.32 1010.91 1011.53 1012.12 1012.75 1013.31 1014.01 1014.06
999.32 999.60 1000.01 1000.04 1000.38 1001.04 1001.24 1001.22 1001.09 1001.03 1001.17 1002.03 1002.90 1003.84 1003.66 1003.39 1003.89 1004.54 1005.54 1006.34 1006.94 1007.78 1008.52 1009.09 1009.77 1010.40 1011.02 1011.59 1012.19 1012.69 1013.36 1013.92
999.71 999.81 999.98 1000.21 1000.43 1000.78 1001.07 1000.81 1000.76 1000.96 1001.36 1001.86 1002.55 1003.09 1003.16 1002.68 1003.08 1003.91 1004.91 1005.55 1006.35 1007.21 1008.06 1008.60 1009.39 1010.02 1010.53 1011.12 1011.67 1012.32 1012.84 1013.39
999.77 1000.05 1000.58 1000.76 1000.72 1000.93 1001.20 1001.11 1000.51 1000.57 1001.07 1001.95 1002.36 1002.72 1002.64 1002.34 1002.75 1003.58 1004.36 1004.83 1005.59 1006.77 1007.53 1008.29 1009.00 1009.58 1010.10 1010.67 1011.22 1011.75 1012.46 1012.92
1000.11 1000.70 1001.24 1001.80 1001.77 1001.71 1001.18 1001.51 1000.86 1000.02 1000.52 1001.75 1002.00 1002.31 1002.24 1001.96 1002.13 1002.75 1003.59 1004.27 1004.89 1006.06 1006.97 1007.74 1008.53 1009.12 1009.70 1010.31 1010.76 1011.31 1011.95 1012.46
1000.72 1001.15 1002.00 1002.60 1002.57 1002.23 1001.59 1001.69 1000.32 999.56 1000.00 1001.22 1001.67 1001.77 1001.79 1001.78 1001.91 1002.70 1003.11 1003.95 1004.64 1005.77 1006.67 1007.50 1008.09 1008.72 1009.38 1009.87 1010.41 1011.01 1011.60 1012.14
1000.97 1001.79 1002.67 1002.97 1003.13 1002.72 1002.13 1001.89 999.66 998.60 999.90 1000.77 1001.40 1001.61 1001.42 1001.71 1001.80 1002.53 1002.90 1003.77 1004.45 1005.07 1006.08 1006.99 1007.69 1008.39 1009.01 1009.67 1010.10 1010.69 1011.17 1011.71
1002.37 1002.66 1002.95 1003.18 1003.38 1003.17 1002.85 1002.45 1000.32 999.26 1000.18 1000.80 1001.40 1001.68 1001.59 1001.56 1001.89 1002.66 1002.85 1003.36 1004.06 1004.70 1005.47 1006.47 1007.27 1008.00 1008.58 1009.24 1009.90 1010.44 1010.77 1011.23
1003.78 1004.07 1004.11 1003.84 1003.79 1003.93 1003.56 1002.99 1001.96 1000.17 1000.45 1000.93 1001.33 1001.56 1001.55 1001.44 1002.17 1002.72 1002.91 1003.16 1004.04 1004.69 1005.40 1006.03 1006.96 1007.54 1008.17 1008.84 1009.45 1010.00 1010.45 1010.82
1005.52 1005.52 1005.22 1004.78 1004.68 1004.63 1004.16 1003.35 1002.18 1000.37 1000.52 1000.82 1001.04 1001.21 1001.28 1001.53 1002.35 1002.55 1002.88 1003.11 1003.86 1004.65 1005.33 1006.10 1006.88 1007.41 1007.92 1008.60 1009.20 1009.77 1010.24 1010.73
1006.72 1006.51 1006.37 1005.76 1005.49 1005.24 1004.84 1003.79 1002.28 1000.56 1000.55 1000.76 1000.98 1001.16 1001.38 1001.76 1002.27 1002.38 1002.77 1003.16 1003.80 1004.70 1005.26 1005.91 1006.37 1007.10 1007.69 1008.33 1008.94 1009.51 1010.04 1010.54
1008.05 1007.76 1007.48 1007.14 1006.80 1006.12 1005.49 1004.11 1002.93 1001.85 1000.38 1000.70 1001.00 1001.41 1001.34 1001.56 1002.20 1002.42 1002.88 1003.44 1003.73 1004.59 1005.20 1005.92 1006.27 1006.61 1007.42 1008.11 1008.72 1009.27 1009.81 1010.33
1009.01 1008.83 1008.68 1008.32 1007.85 1007.01 1005.93 1004.31 1003.18 1001.43 1000.41 1000.81 1001.06 1001.36 1001.39 1001.67 1002.15 1002.51 1003.01 1003.54 1004.05 1004.51 1004.78 1005.60 1006.04 1006.42 1007.28 1008.06 1008.66 1009.01 1009.52 1010.01
1010.15 1010.10 1009.75 1009.32 1008.78 1007.86 1006.73 1004.63 1003.72 1001.41 1001.05 1001.07 1001.18 1001.26 1001.42 1001.81 1002.16 1002.73 1003.21 1003.62 1004.23 1004.78 1005.17 1005.72 1006.14 1006.61 1007.39 1008.07 1008.65 1008.93 1009.22 1009.61
Wind_Speed
14 16 16 13 11 10 10 10 14 15 12 12 11 11 12 11 11 12 15 12 13 9 9 7 8 6 5 6 8 6 8 8
15 12 2 5 9 10 11 11 12 11 12 12 11 10 8 10 12 14 14 11 12 9 8 7 8 9 9 9 6 10 7 10
15 7 7 7 10 10 12 12 13 13 12 12 8 8 8 8 10 11 12 12 10 11 11 7 9 7 9 10 9 5 3 7
12 8 7 8 10 7 9 13 13 13 15 8 7 8 7 8 10 11 13 11 13 10 12 9 9 9 9 11 12 13 8 7
6 8 9 6 6 5 9 11 12 13 15 13 16 10 11 11 10 11 11 14 13 12 11 11 10 8 11 10 11 11 10 14
8 6 5 5 5 6 6 10 11 13 14 16 14 13 13 11 12 15 13 12 11 12 13 11 10 8 11 13 11 11 9 11
5 3 4 7 5 7 9 9 12 12 13 16 15 15 17 13 13 11 10 7 10 11 12 10 11 11 12 11 13 12 12 10
2 3 7 9 9 8 9 12 12 13 14 16 13 16 18 16 13 10 12 10 9 11 11 11 9 11 11 11 12 14 13 11
3 6 9 11 12 13 14 16 16 13 13 12 15 15 11 10 12 11 10 9 10 10 11 10 11 11 11 11 10 10 13 11
7 8 11 13 14 17 17 16 20 16 13 12 14 13 13 10 13 11 9 10 9 13 12 14 13 13 13 12 9 12 13 14
8 8 12 13 15 17 18 18 24 20 13 13 12 11 13 11 10 13 12 10 10 12 12 11 10 11 11 12 10 11 13 11
6 8 10 13 14 17 18 19 24 16 12 13 13 12 13 11 11 12 11 11 11 12 14 12 12 12 11 10 10 11 12 12
12 13 14 14 16 18 17 17 18 4 10 10 12 12 12 12 11 13 13 11 12 11 9 11 11 12 12 13 10 10 11 9
13 14 15 16 16 17 17 16 17 6 8 10 12 13 13 10 12 13 11 10 11 10 5 9 11 10 10 11 12 12 12 13
11 13 15 15 16 17 16 16 16 7 9 10 10 10 8 10 12 13 11 11 12 11 8 9 10 9 10 10 9 9 10 9
13 14 15 17 18 17 16 14 13 7 9 9 9 8 8 10 12 11 10 10 11 11 9 8 10 10 9 11 10 10 9 9
14 15 16 17 18 17 17 15 15 16 9 9 9 9 9 12 10 9 10 10 12 10 11 8 7 7 11 11 10 9 10 10
14 16 15 16 17 16 16 15 19 12 9 9 9 10 10 9 9 9 10 10 10 11 11 10 10 8 13 12 12 9 9 10
13 14 15 16 16 15 14 16 19 8 6 5 7 11 10 8 8 9 8 9 10 9 8 8 8 7 13 12 12 8 8 11
Wind_Direction
208 221 224 217 237 240 234 218 208 203 215 216 216 208 211 213 194 196 199 203 206 215 228 204 192 160 154 161 165 188 172 182
227 228 148 224 258 264 252 240 227 202 211 215 203 201 207 214 214 196 192 202 199 209 218 210 162 175 174 168 170 179 187 176
228 213 211 231 252 261 256 241 235 218 214 216 192 190 204 212 217 196 207 184 192 203 208 169 162 164 166 173 170 143 153 178
226 176 221 239 244 259 265 255 244 223 223 180 188 190 203 205 203 206 202 195 202 202 199 175 168 168 173 174 167 166 165 179
194 189 216 234 262 297 291 276 251 229 215 190 203 204 201 208 208 205 200 198 202 202 192 178 175 171 173 177 178 176 171 180
184 196 239 271 299 307 302 288 263 241 215 221 194 212 213 205 202 200 204 198 196 194 191 176 176 175 181 177 176 176 194 185
201 229 269 274 339 329 307 280 264 243 219 217 189 204 224 209 201 194 195 189 192 195 192 181 185 184 180 185 187 181 180 191
248 291 320 325 303 307 307 295 265 243 220 229 196 204 226 222 194 190 191 187 186 185 179 182 187 189 183 181 183 187 183 178
269 350 348 328 325 321 315 304 288 244 222 219 218 208 230 224 187 191 193 198 195 173 174 176 181 183 184 181 183 179 182 174
6 356 4 341 330 320 310 300 283 266 217 217 214 216 228 203 193 191 185 187 192 180 183 184 186 182 186 181 181 178 181 186
347 0 0 340 330 320 309 297 280 257 210 206 209 205 209 213 180 190 184 177 180 163 171 178 171 176 180 182 184 184 186 193
339 9 351 339 337 328 320 313 287 237 189 199 201 192 208 214 185 180 172 177 182 181 175 181 178 178 176 182 185 183 185 189
355 347 335 337 341 338 331 320 316 205 187 184 188 191 216 205 172 186 169 171 179 181 169 172 179 180 179 181 182 185 186 179
351 337 334 331 341 339 333 319 329 213 194 177 193 198 219 179 168 181 172 159 170 174 175 166 174 171 174 187 195 193 195 195
341 338 334 330 340 340 334 320 331 215 183 190 189 192 190 169 170 175 170 167 168 164 161 171 173 168 171 176 182 187 194 193
341 342 338 337 339 341 330 317 326 245 185 178 168 169 170 184 177 169 165 166 170 169 157 172 165 170 178 179 184 183 181 188
342 347 341 339 337 339 322 326 326 311 161 161 160 182 188 178 171 166 156 165 173 163 160 172 176 179 155 165 175 182 187 189
355 352 345 342 339 336 327 336 323 293 157 161 166 179 181 162 159 164 171 168 165 181 171 177 184 182 152 173 184 185 187 197
360 354 346 348 339 340 331 6 342 4 68 100 179 177 165 162 155 167 175 176 167 171 166 182 191 192 164 172 182 207 194 199